�������l�o���
Date,Time,MP-1(��Sv/h),MP-2(��Sv/h),MP-3(��Sv/h),MP-4(��Sv/h),MP-5(��Sv/h),MP-6(��Sv/h),MP-7(��Sv/h),MP-8(��Sv/h),����,����(m/s),���J
2020/05/26,00:00,0.692,0.988,0.644,1.190,0.847,0.399,0.686,0.646,�k�k��,2.6,�L
2020/05/26,00:10,0.691,0.989,0.642,1.190,0.845,0.400,0.687,0.647,�k��,1.9,�L
2020/05/26,00:20,0.692,0.988,0.644,1.191,0.846,0.400,0.683,0.647,���k��,0.9,��
2020/05/26,00:30,0.691,0.987,0.644,1.192,0.847,0.401,0.686,0.647,���쐼,0.8,��
2020/05/26,00:40,0.691,0.987,0.642,1.190,0.849,0.399,0.685,0.646,��,1.2,��
2020/05/26,00:50,0.690,0.987,0.642,1.188,0.848,0.400,0.687,0.647,��쐼,0.9,�L
2020/05/26,01:00,0.690,0.988,0.644,1.192,0.847,0.399,0.686,0.646,��쐼,2.6,�L
2020/05/26,01:10,0.691,0.986,0.643,1.190,0.847,0.401,0.687,0.645,�쐼,1.5,�L
2020/05/26,01:20,0.690,0.988,0.643,1.189,0.848,0.400,0.687,0.645,��쐼,1.7,�L
2020/05/26,01:30,0.690,0.987,0.642,1.189,0.848,0.399,0.685,0.646,��,1.2,�L
2020/05/26,01:40,0.690,0.987,0.643,1.190,0.850,0.401,0.685,0.646,��쓌,0.9,��
2020/05/26,01:50,0.690,0.988,0.643,1.191,0.849,0.400,0.686,0.647,��쓌,0.9,��
2020/05/26,02:00,0.690,0.987,0.643,1.190,0.847,0.400,0.686,0.646,��,1.5,��
2020/05/26,02:10,0.691,0.985,0.643,1.189,0.846,0.400,0.685,0.645,�쐼,0.8,�L
2020/05/26,02:20,0.688,0.978,0.641,1.189,0.846,0.401,0.686,0.646,���k��,0.6,�L
2020/05/26,02:30,0.687,0.976,0.642,1.188,0.842,0.401,0.685,0.645,-,CALM,�L
2020/05/26,02:40,0.686,0.975,0.640,1.185,0.842,0.401,0.683,0.643,�쓌,0.6,�L
2020/05/26,02:50,0.685,0.973,0.643,1.181,0.839,0.401,0.681,0.644,�쓌,1.5,�L
2020/05/26,03:00,0.682,0.969,0.638,1.181,0.836,0.400,0.680,0.640,��쓌,6.7,�L
2020/05/26,03:10,0.683,0.962,0.637,1.177,0.832,0.399,0.678,0.640,-,CALM,�L
2020/05/26,03:20,0.681,0.962,0.637,1.172,0.830,0.399,0.676,0.640,�쐼,4.5,�L
2020/05/26,03:30,0.680,0.959,0.636,1.169,0.828,0.400,0.675,0.638,-,CALM,�L
2020/05/26,03:40,0.679,0.959,0.636,1.166,0.829,0.401,0.677,0.639,��,3.3,�L
2020/05/26,03:50,0.681,0.957,0.636,1.166,0.827,0.401,0.677,0.639,��쓌,4.2,�L
2020/05/26,04:00,0.681,0.958,0.636,1.165,0.826,0.401,0.676,0.639,��쓌,4.0,�L
2020/05/26,04:10,0.680,0.955,0.635,1.163,0.827,0.399,0.675,0.637,��쓌,4.5,�L
2020/05/26,04:20,0.679,0.957,0.635,1.163,0.826,0.398,0.675,0.637,��쓌,3.6,�L
2020/05/26,04:30,0.677,0.957,0.633,1.162,0.825,0.397,0.676,0.638,�쓌,1.9,�L
2020/05/26,04:40,0.677,0.956,0.633,1.161,0.825,0.399,0.673,0.638,���쓌,1.2,�L
2020/05/26,04:50,0.677,0.956,0.634,1.162,0.824,0.399,0.674,0.639,�쓌,2.3,�L
2020/05/26,05:00,0.678,0.956,0.632,1.157,0.823,0.398,0.674,0.637,���쓌,2.8,�L
2020/05/26,05:10,0.675,0.957,0.631,1.157,0.825,0.396,0.675,0.638,�쓌,1.5,�L
2020/05/26,05:20,0.674,0.954,0.631,1.157,0.825,0.396,0.677,0.638,�쓌,0.8,�L
2020/05/26,05:30,0.673,0.955,0.630,1.158,0.825,0.396,0.675,0.639,�쓌,0.8,�L
2020/05/26,05:40,0.674,0.954,0.630,1.156,0.824,0.395,0.677,0.638,�쓌,0.8,�L
2020/05/26,05:50,0.672,0.954,0.628,1.158,0.823,0.393,0.675,0.639,�쓌,1.1,�L
2020/05/26,06:00,0.672,0.954,0.627,1.159,0.824,0.394,0.678,0.638,��쐼,1.2,��
2020/05/26,06:10,0.673,0.953,0.628,1.159,0.825,0.394,0.677,0.638,�쐼,1.2,�L
2020/05/26,06:20,0.673,0.953,0.627,1.157,0.827,0.394,0.677,0.637,-,CALM,�L
2020/05/26,06:30,0.672,0.955,0.629,1.158,0.825,0.394,0.676,0.638,��,1.9,�L
2020/05/26,06:40,0.670,0.953,0.629,1.156,0.824,0.393,0.677,0.639,��쐼,2.2,��
2020/05/26,06:50,0.673,0.954,0.628,1.158,0.823,0.392,0.675,0.640,��,2.6,��
2020/05/26,07:00,0.672,0.954,0.627,1.158,0.823,0.393,0.676,0.639,��쓌,3.1,��
2020/05/26,07:10,0.672,0.956,0.627,1.159,0.823,0.391,0.675,0.639,��쓌,4.1,��
2020/05/26,07:20,0.674,0.953,0.629,1.159,0.823,0.392,0.676,0.638,��쓌,4.9,��
2020/05/26,07:30,0.672,0.953,0.629,1.156,0.824,0.389,0.676,0.638,��쓌,1.4,��
2020/05/26,07:40,0.671,0.953,0.628,1.158,0.824,0.391,0.675,0.637,��쐼,1.5,��
2020/05/26,07:50,0.673,0.953,0.628,1.159,0.823,0.390,0.676,0.638,���k��,1.1,��
2020/05/26,08:00,0.674,0.952,0.627,1.157,0.825,0.390,0.675,0.638,�k�k��,2.0,��
2020/05/26,08:10,0.673,0.954,0.628,1.160,0.825,0.392,0.676,0.638,�k�k��,2.8,��
2020/05/26,08:20,0.673,0.951,0.628,1.162,0.824,0.392,0.678,0.636,�k�k��,3.1,��
2020/05/26,08:30,0.673,0.951,0.628,1.161,0.824,0.391,0.676,0.637,�k�k��,1.4,��
2020/05/26,08:40,0.673,0.949,0.626,1.160,0.823,0.393,0.677,0.637,�k�k��,1.9,��
2020/05/26,08:50,0.674,0.952,0.624,1.162,0.826,0.392,0.676,0.637,���k��,1.7,��
2020/05/26,09:00,0.674,0.952,0.622,1.160,0.825,0.391,0.677,0.637,���k��,1.7,��
2020/05/26,09:10,0.672,0.951,0.621,1.163,0.824,0.393,0.678,0.638,��,2.0,��
2020/05/26,09:20,0.676,0.952,0.622,1.162,0.827,0.392,0.677,0.638,���쓌,2.0,��
2020/05/26,09:30,0.675,0.951,0.620,1.162,0.826,0.393,0.678,0.638,��쓌,3.6,��
2020/05/26,09:40,0.675,0.956,0.620,1.163,0.826,0.394,0.679,0.638,��쓌,3.6,��
2020/05/26,09:50,0.677,0.952,0.623,1.164,0.827,0.393,0.678,0.639,��쓌,3.8,��
2020/05/26,10:00,0.677,0.955,0.619,1.164,0.829,0.392,0.679,0.637,��쓌,4.6,��
2020/05/26,10:10,0.676,0.953,0.624,1.165,0.827,0.394,0.679,0.638,��쓌,4.2,��
2020/05/26,10:20,0.674,0.957,0.628,1.164,0.831,0.393,0.679,0.639,��쓌,4.2,��
2020/05/26,10:30,0.675,0.955,0.626,1.166,0.830,0.393,0.679,0.637,��쓌,4.4,��
2020/05/26,10:40,0.675,0.957,0.627,1.166,0.830,0.394,0.680,0.639,��쓌,4.6,��
2020/05/26,10:50,0.674,0.959,0.627,1.166,0.833,0.394,0.681,0.639,��쓌,5.4,��
2020/05/26,11:00,0.675,0.960,0.626,1.167,0.830,0.394,0.680,0.638,��쓌,6.1,��
2020/05/26,11:10,0.677,0.961,0.628,1.165,0.832,0.395,0.681,0.639,��쓌,6.4,��
2020/05/26,11:20,0.677,0.964,0.629,1.163,0.833,0.396,0.681,0.639,��쓌,7.7,��
2020/05/26,11:30,0.678,0.964,0.629,1.164,0.834,0.396,0.682,0.640,��쓌,8.0,��
2020/05/26,11:40,0.680,0.965,0.628,1.168,0.833,0.395,0.680,0.641,��쓌,6.9,��
2020/05/26,11:50,0.681,0.967,0.629,1.164,0.832,0.395,0.682,0.640,��쓌,7.5,��
2020/05/26,12:00,0.681,0.970,0.627,1.167,0.835,0.393,0.681,0.641,��쓌,9.4,��
2020/05/26,12:10,0.680,0.967,0.630,1.167,0.834,0.396,0.681,0.640,��쓌,10.8,��
2020/05/26,12:20,0.678,0.969,0.630,1.167,0.836,0.396,0.681,0.639,��,8.5,��
2020/05/26,12:30,0.681,0.970,0.627,1.168,0.835,0.396,0.681,0.641,��쓌,8.7,��
2020/05/26,12:40,0.681,0.971,0.629,1.168,0.835,0.396,0.680,0.640,��쓌,8.1,��
2020/05/26,12:50,0.679,0.970,0.624,1.168,0.838,0.396,0.680,0.639,�쓌,5.8,��
2020/05/26,13:00,0.679,0.967,0.625,1.167,0.837,0.396,0.681,0.641,��,4.1,��
2020/05/26,13:10,0.678,0.970,0.627,1.167,0.836,0.396,0.681,0.640,��,5.1,��
2020/05/26,13:20,0.680,0.969,0.626,1.168,0.836,0.395,0.681,0.641,�k��,5.3,��
2020/05/26,13:30,0.679,0.968,0.627,1.167,0.837,0.396,0.680,0.640,�k��,5.5,��
2020/05/26,13:40,0.676,0.965,0.627,1.168,0.835,0.395,0.679,0.639,�k�k��,5.5,��
2020/05/26,13:50,0.678,0.965,0.631,1.168,0.838,0.394,0.681,0.640,�k�k��,4.7,��
2020/05/26,14:00,0.678,0.963,0.626,1.170,0.837,0.392,0.680,0.641,�k�k��,3.9,��
2020/05/26,14:10,0.679,0.961,0.628,1.168,0.837,0.394,0.682,0.639,�k,4.4,��
2020/05/26,14:20,0.680,0.965,0.632,1.165,0.836,0.395,0.679,0.640,�k�k��,3.4,��
2020/05/26,14:30,0.680,0.964,0.629,1.166,0.835,0.395,0.680,0.640,�k�k��,3.5,��
2020/05/26,14:40,0.680,0.965,0.628,1.167,0.836,0.394,0.680,0.640,�k,3.6,��
2020/05/26,14:50,0.680,0.964,0.630,1.172,0.835,0.394,0.680,0.642,�k�k��,3.8,��
2020/05/26,15:00,0.679,0.966,0.628,1.171,0.837,0.393,0.681,0.639,�k,3.9,��
2020/05/26,15:10,0.680,0.966,0.628,1.169,0.839,0.394,0.680,0.641,�k,5.5,��
2020/05/26,15:20,0.679,0.967,0.627,1.170,0.838,0.392,0.680,0.640,�k�k��,3.9,��
2020/05/26,15:30,0.680,0.966,0.627,1.172,0.836,0.392,0.680,0.642,�k,3.4,��
2020/05/26,15:40,0.679,0.971,0.626,1.171,0.836,0.394,0.681,0.640,��,4.0,��
2020/05/26,15:50,0.680,0.968,0.628,1.174,0.836,0.392,0.681,0.641,�k,3.4,��
2020/05/26,16:00,0.681,0.968,0.627,1.172,0.838,0.393,0.680,0.640,�k,3.7,��
2020/05/26,16:10,0.679,0.971,0.626,1.170,0.837,0.393,0.680,0.640,�k�k��,2.3,��
2020/05/26,16:20,0.682,0.968,0.627,1.171,0.836,0.393,0.681,0.641,�k,2.3,��
2020/05/26,16:30,0.681,0.969,0.626,1.174,0.836,0.391,0.681,0.640,�k,1.4,��
2020/05/26,16:40,0.678,0.972,0.629,1.173,0.838,0.391,0.681,0.641,�k�k��,2.3,��
2020/05/26,16:50,0.681,0.969,0.628,1.175,0.838,0.394,0.679,0.640,�k�k��,0.9,��
2020/05/26,17:00,0.680,0.972,0.630,1.174,0.840,0.394,0.680,0.642,�k�k��,0.6,��
2020/05/26,17:10,0.680,0.971,0.630,1.173,0.837,0.394,0.679,0.642,���k��,0.8,��
2020/05/26,17:20,0.681,0.972,0.629,1.173,0.836,0.393,0.682,0.641,-,CALM,��
2020/05/26,17:30,0.681,0.973,0.630,1.175,0.839,0.395,0.680,0.640,�k�k��,1.5,��
2020/05/26,17:40,0.682,0.973,0.632,1.174,0.839,0.395,0.680,0.642,�k�k��,0.6,��
2020/05/26,17:50,0.682,0.972,0.631,1.175,0.839,0.392,0.680,0.641,�쐼,0.8,��
2020/05/26,18:00,0.683,0.973,0.632,1.172,0.840,0.393,0.680,0.643,��,1.1,��
2020/05/26,18:10,0.682,0.977,0.632,1.172,0.841,0.395,0.680,0.643,��,1.5,��
2020/05/26,18:20,0.682,0.973,0.632,1.175,0.841,0.395,0.681,0.641,��쓌,2.5,��
2020/05/26,18:30,0.683,0.974,0.633,1.174,0.840,0.393,0.680,0.642,��쓌,2.6,��
2020/05/26,18:40,0.681,0.974,0.632,1.174,0.839,0.394,0.681,0.640,��쓌,3.1,��
2020/05/26,18:50,0.681,0.975,0.631,1.173,0.841,0.394,0.681,0.642,�쓌,1.5,��
2020/05/26,19:00,0.680,0.974,0.630,1.175,0.841,0.396,0.681,0.642,���k��,1.2,��
2020/05/26,19:10,0.682,0.974,0.633,1.172,0.839,0.396,0.681,0.641,�k��,2.0,��
2020/05/26,19:20,0.681,0.973,0.632,1.174,0.840,0.393,0.681,0.643,���k��,0.9,��
2020/05/26,19:30,0.683,0.974,0.630,1.176,0.840,0.395,0.680,0.644,��,0.6,�L
2020/05/26,19:40,0.682,0.975,0.631,1.175,0.840,0.396,0.681,0.643,���k��,0.6,��
2020/05/26,19:50,0.684,0.973,0.632,1.177,0.842,0.396,0.681,0.642,�k��,1.2,��
2020/05/26,20:00,0.682,0.977,0.631,1.174,0.841,0.394,0.680,0.642,���쐼,0.9,��
2020/05/26,20:10,0.682,0.975,0.633,1.175,0.839,0.395,0.681,0.641,��쐼,1.4,�L
2020/05/26,20:20,0.685,0.973,0.633,1.175,0.843,0.397,0.681,0.644,�쐼,1.4,�L
2020/05/26,20:30,0.684,0.974,0.631,1.175,0.843,0.393,0.680,0.643,��쐼,0.9,�L
2020/05/26,20:40,0.683,0.974,0.633,1.176,0.842,0.396,0.680,0.644,��,0.9,�L
2020/05/26,20:50,0.684,0.976,0.630,1.176,0.842,0.396,0.681,0.644,��쐼,0.9,�L
2020/05/26,21:00,0.682,0.976,0.632,1.178,0.841,0.395,0.681,0.644,��,1.5,�L
2020/05/26,21:10,0.684,0.975,0.630,1.175,0.842,0.397,0.682,0.643,��쓌,2.6,�L
2020/05/26,21:20,0.682,0.974,0.633,1.175,0.842,0.397,0.682,0.645,��,1.7,�L
2020/05/26,21:30,0.684,0.975,0.634,1.175,0.842,0.396,0.683,0.645,��,2.3,�L
2020/05/26,21:40,0.684,0.974,0.633,1.177,0.842,0.396,0.682,0.644,��쓌,4.1,�L
2020/05/26,21:50,0.686,0.974,0.632,1.176,0.840,0.398,0.683,0.644,��쓌,4.3,�L
2020/05/26,22:00,0.684,0.977,0.631,1.176,0.842,0.396,0.682,0.644,��,4.5,�L
2020/05/26,22:10,0.684,0.974,0.634,1.176,0.840,0.397,0.682,0.645,��,5.1,�L
2020/05/26,22:20,0.684,0.974,0.632,1.177,0.841,0.397,0.683,0.643,��,5.2,�L
2020/05/26,22:30,0.685,0.973,0.633,1.177,0.842,0.397,0.684,0.645,��,5.7,�L
2020/05/26,22:40,0.686,0.977,0.633,1.175,0.842,0.396,0.682,0.645,��쐼,5.7,�L
2020/05/26,22:50,0.684,0.975,0.634,1.178,0.842,0.397,0.684,0.645,��쐼,6.4,�L
2020/05/26,23:00,0.684,0.976,0.633,1.177,0.841,0.397,0.683,0.644,��,6.7,�L
2020/05/26,23:10,0.684,0.975,0.632,1.175,0.840,0.398,0.684,0.643,��,6.1,�L
2020/05/26,23:20,0.683,0.975,0.632,1.175,0.839,0.399,0.682,0.644,��,5.0,�L
2020/05/26,23:30,0.682,0.975,0.633,1.175,0.841,0.397,0.682,0.646,��,4.5,�L
2020/05/26,23:40,0.683,0.973,0.631,1.176,0.840,0.398,0.683,0.644,��,4.0,�L
2020/05/26,23:50,0.683,0.971,0.632,1.175,0.840,0.397,0.682,0.644,��쓌,2.6,�L
